EW5854 Weather Reports


time (UTC)temp
F
wind
direction
speed
knots
gust
knots
rain 1hr
in
rain 24hr
in
rain mn
in
humidity
%
barometer
mb
20260507094509 43 115 0.0 0.0 0.00 0.00 0.00 100 1006.6
20260507093008 44 115 0.0 0.0 0.00 0.00 0.00 100 1006.4
20260507091507 44 115 0.0 0.0 0.00 0.00 0.00 100 1006.5
20260507090006 44 115 0.0 0.0 0.00 0.00 0.00 100 1006.6
20260507084506 45 115 0.0 0.0 0.00 0.00 0.00 100 1006.4
20260507083003 45 115 0.0 0.0 0.00 0.00 0.00 100 1006.0
20260507081500 45 115 0.0 0.0 0.00 0.00 0.00 100 1006.1
20260507074555 46 115 0.0 0.0 0.00 0.00 0.00 100 1006.7
20260507073046 46 115 0.0 0.0 0.00 0.00 0.00 100 1006.1
20260507071543 46 115 0.0 0.0 0.00 0.00 0.00 100 1006.2
20260507070045 46 115 0.0 0.0 0.00 0.00 0.00 100 1005.7
20260507064541 46 115 0.0 0.0 0.00 0.00 0.00 100 1005.8
20260507063043 46 115 0.0 0.0 0.00 0.00 0.00 100 1005.6
20260507061542 47 115 0.0 0.0 0.00 0.00 0.00 100 1005.6
20260507060039 47 115 0.0 0.0 0.00 0.00 0.00 100 1005.1
20260507054525 47 115 0.0 0.9 0.00 0.00 0.00 100 1005.2
20260507053024 47 115 0.0 0.9 0.00 0.00 0.00 100 1005.4
20260507051522 48 115 0.0 0.0 0.00 0.00 0.00 100 1005.9
20260507050027 48 115 0.0 1.7 0.00 0.00 0.00 100 1005.6
20260507044519 49 115 0.0 0.9 0.00 0.00 0.00 100 1006.0
20260507043023 49 115 0.0 0.9 0.00 0.00 0.00 100 1005.5
20260507041513 50 115 0.0 0.9 0.00 0.00 0.00 100 1005.4
20260507040012 51 115 0.0 0.9 0.00 0.00 0.00 100 1005.4
20260507034558 51 115 0.0 1.7 0.00 0.00 0.00 100 1005.2
20260507033055 52 115 0.0 0.9 0.00 0.00 0.00 100 1005.1
20260507031551 53 115 0.0 0.0 0.00 0.00 0.00 100 1004.4
20260507030052 53 115 0.0 2.6 0.00 0.00 0.00 100 1004.3
20260507024554 53 115 0.0 2.6 0.00 0.00 0.00 100 1004.3
20260507023104 54 115 0.9 6.1 0.00 0.00 0.00 100 1004.3
20260507021551 54 115 0.0 1.7 0.00 0.00 0.00 100 1004.4
20260507020057 54 115 0.9 6.1 0.00 0.00 0.00 100 1004.2
20260507014539 54 115 0.9 6.1 0.00 0.00 0.00 100 1004.2
20260507013038 54 115 0.0 5.2 0.00 0.00 0.00 100 1004.3
20260507011543 54 115 0.9 7.0 0.00 0.00 0.00 100 1004.5
20260507010036 54 115 0.9 7.8 0.00 0.00 0.00 100 1004.7
20260507004532 54 115 0.0 7.8 0.00 0.00 0.00 100 1005.0
20260507003031 54 115 1.7 8.7 0.00 0.00 0.00 100 1005.0
20260507001601 54 115 0.0 7.0 0.00 0.00 0.00 100 1005.0
20260507000037 54 115 0.9 7.8 0.00 0.00 0.00 100 1005.0
20260506234517 54 115 0.0 4.3 0.00 0.00 0.00 100 1005.2
20260506233018 54 115 0.0 4.3 0.00 0.00 0.00 100 1005.2
20260506231517 54 115 0.0 3.5 0.00 0.00 0.00 100 1005.4
20260506230014 54 115 0.0 7.0 0.00 0.00 0.00 100 1005.5
20260506224512 54 115 0.0 5.2 0.00 0.00 0.00 100 1005.7
20260506223011 54 115 0.0 4.3 0.00 0.00 0.00 100 1005.8
20260506221510 54 115 1.7 8.7 0.00 0.00 0.00 100 1005.9
20260506220009 54 115 0.9 7.0 0.00 0.00 0.00 100 1006.0
20260506214557 54 115 0.9 6.1 0.00 0.00 0.00 100 1006.2
20260506213102 54 115 0.9 3.5 0.00 0.00 0.00 100 1006.2
20260506211556 54 115 0.9 8.7 0.00 0.00 0.00 100 1005.9
20260506210059 54 115 0.0 4.3 0.00 0.00 0.00 100 1006.1
20260506204556 54 115 0.0 4.3 0.00 0.00 0.00 100 1006.2
20260506203108 54 115 0.0 4.3 0.00 0.00 0.00 100 1006.4
20260506201551 54 115 0.9 4.3 0.00 0.00 0.00 100 1006.3
20260506200054 54 115 0.0 2.6 0.00 0.00 0.00 100 1006.4
20260506194548 54 115 0.9 7.0 0.00 0.00 0.00 100 1006.5
20260506193041 54 115 1.7 7.0 0.00 0.00 0.00 100 1006.8
20260506191534 55 115 0.0 7.8 0.00 0.00 0.00 99 1007.1
20260506190034 55 115 0.9 6.1 0.00 0.00 0.00 99 1006.8
20260506184537 56 115 0.0 3.5 0.00 0.00 0.00 98 1006.7
20260506183030 56 115 0.0 6.1 0.00 0.00 0.00 96 1006.9
20260506181538 57 115 0.0 0.9 0.00 0.01 0.00 94 1007.0
20260506180029 59 115 0.0 3.5 0.00 0.01 0.00 91 1007.0
20260506174532 59 115 0.0 3.5 0.00 0.01 0.00 89 1007.3
20260506173007 60 115 0.0 7.0 0.00 0.01 0.00 87 1007.6
20260506171505 60 115 0.9 7.8 0.00 0.01 0.00 85 1007.9
20260506170106 60 115 0.0 5.2 0.00 0.01 0.00 85 1008.0
20260506164615 60 115 0.0 1.7 0.00 0.01 0.00 85 1008.6
20260506163101 60 115 0.0 2.6 0.00 0.01 0.00 85 1008.7
20260506161555 60 115 0.0 3.5 0.00 0.01 0.00 85 1009.1
20260506154555 61 115 0.0 4.3 0.00 0.01 0.00 84 1009.2
20260506153052 61 115 0.9 6.1 0.00 0.01 0.00 83 1009.2
20260506151553 61 115 0.0 1.7 0.00 0.01 0.00 83 1009.0
20260506150031 60 115 0.0 2.6 0.00 0.01 0.00 84 1008.9
20260506144530 60 115 0.0 3.5 0.00 0.01 0.00 84 1008.8
20260506143014 59 115 0.0 3.5 0.00 0.01 0.00 85 1009.2
20260506141524 58 115 0.0 0.9 0.00 0.01 0.00 85 1009.6
20260506140013 58 115 1.7 7.0 0.00 0.01 0.00 85 1009.6
20260506134511 58 115 0.0 0.9 0.00 0.01 0.00 84 1009.6
20260506133011 58 115 0.0 0.9 0.00 0.01 0.00 83 1009.6
20260506131511 58 115 0.0 0.9 0.00 0.01 0.00 84 1009.5
20260506130008 58 115 0.0 2.6 0.00 0.01 0.00 83 1009.7
20260506124506 58 115 0.0 2.6 0.00 0.01 0.00 85 1009.8
20260506123051 57 115 0.0 2.6 0.00 0.01 0.00 84 1010.2
20260506121555 56 115 0.0 1.7 0.00 0.01 0.00 86 1010.5
20260506120150 56 115 0.0 1.7 0.00 0.01 0.00 86 1010.2
20260506114548 56 115 0.9 3.5 0.00 0.01 0.00 86 1010.3
20260506113047 55 115 0.0 0.0 0.00 0.01 0.00 88 1010.4
20260506111549 54 115 0.0 0.0 0.00 0.01 0.00 88 1010.4
20260506110057 54 115 0.0 0.0 0.00 0.01 0.00 90 1010.4
20260506104558 53 115 0.0 0.0 0.00 0.01 0.00 90 1010.3
20260506103042 52 115 0.0 0.0 0.00 0.01 0.00 94 1010.4
20260506101534 51 115 0.0 0.0 0.00 0.01 0.00 95 1010.6
20260506100031 51 115 0.0 0.0 0.00 0.01 0.00 94 1010.5